| time (UTC) | temp C | wind direction | speed KPH | gust KPH | rain 1hr cm | rain 24hr cm | rain mn cm | humidity % | barometer mb |
| 20260507104058 | 11 | 0 | 0.0 | 0.0 | 0.00 | 0.00 | 0.00 | 75 | 1017.1 |
| 20260507103059 | 11 | 0 | 0.0 | 0.0 | 0.00 | 0.00 | 0.00 | 75 | 1017.1 |
| 20260507101100 | 10 | 0 | 0.0 | 0.0 | 0.00 | 0.00 | 0.00 | 78 | 1017.1 |
| 20260507100100 | 10 | 0 | 0.0 | 0.0 | 0.00 | 0.00 | 0.00 | 77 | 1017.1 |
| 20260507095057 | 10 | 0 | 0.0 | 0.0 | 0.00 | 0.00 | 0.00 | 77 | 1017.0 |
| 20260507094059 | 10 | 0 | 0.0 | 0.0 | 0.00 | 0.00 | 0.00 | 78 | 1016.9 |
| 20260507093058 | 10 | 0 | 0.0 | 0.0 | 0.00 | 0.00 | 0.00 | 79 | 1016.9 |
| 20260507092059 | 10 | 0 | 0.0 | 0.0 | 0.00 | 0.00 | 0.00 | 80 | 1016.9 |
| 20260507091058 | 10 | 0 | 0.0 | 0.0 | 0.00 | 0.00 | 0.00 | 79 | 1016.8 |
| 20260507090100 | 10 | 0 | 0.0 | 0.0 | 0.00 | 0.00 | 0.00 | 80 | 1016.7 |
| 20260507085058 | 10 | 0 | 0.0 | 0.0 | 0.00 | 0.00 | 0.00 | 81 | 1016.6 |
| 20260507084100 | 10 | 0 | 0.0 | 0.0 | 0.00 | 0.00 | 0.00 | 80 | 1016.6 |
| 20260507083102 | 9 | 0 | 0.0 | 0.0 | 0.00 | 0.00 | 0.00 | 81 | 1016.6 |
| 20260507081101 | 9 | 0 | 0.0 | 0.0 | 0.00 | 0.00 | 0.00 | 83 | 1016.5 |
| 20260507080057 | 8 | 0 | 0.0 | 0.0 | 0.00 | 0.00 | 0.00 | 84 | 1016.5 |
| 20260507075100 | 8 | 0 | 0.0 | 0.0 | 0.00 | 0.00 | 0.00 | 85 | 1016.6 |
| 20260507074100 | 8 | 0 | 0.0 | 0.0 | 0.00 | 0.03 | 0.00 | 86 | 1016.5 |
| 20260507073101 | 8 | 0 | 0.0 | 0.0 | 0.00 | 0.03 | 0.00 | 87 | 1016.4 |
| 20260507071058 | 8 | 0 | 0.0 | 0.0 | 0.00 | 0.03 | 0.00 | 89 | 1016.3 |
| 20260507070058 | 8 | 0 | 0.0 | 0.0 | 0.00 | 0.03 | 0.00 | 89 | 1016.2 |
| 20260507065055 | 8 | 0 | 0.0 | 0.0 | 0.00 | 0.03 | 0.00 | 89 | 1016.2 |
| 20260507064056 | 8 | 0 | 0.0 | 0.0 | 0.00 | 0.03 | 0.00 | 91 | 1016.0 |
| 20260507063055 | 7 | 0 | 0.0 | 0.0 | 0.00 | 0.03 | 0.00 | 90 | 1016.0 |
| 20260507062058 | 7 | 0 | 0.0 | 0.0 | 0.00 | 0.05 | 0.00 | 91 | 1016.0 |
| 20260507061058 | 7 | 0 | 0.0 | 0.0 | 0.00 | 0.05 | 0.00 | 92 | 1015.9 |
| 20260507060056 | 7 | 0 | 0.0 | 0.0 | 0.00 | 0.05 | 0.00 | 92 | 1015.8 |
| 20260507055052 | 7 | 0 | 0.0 | 0.0 | 0.00 | 0.05 | 0.00 | 94 | 1015.7 |
| 20260507054055 | 7 | 0 | 0.0 | 0.0 | 0.00 | 0.05 | 0.00 | 94 | 1015.6 |
| 20260507053054 | 7 | 0 | 0.0 | 0.0 | 0.00 | 0.05 | 0.00 | 94 | 1015.6 |
| 20260507052057 | 7 | 0 | 0.0 | 0.0 | 0.00 | 0.05 | 0.00 | 94 | 1015.4 |
| 20260507050057 | 7 | 0 | 0.0 | 0.0 | 0.00 | 0.05 | 0.00 | 95 | 1015.2 |
| 20260507045057 | 7 | 0 | 0.0 | 0.0 | 0.00 | 0.05 | 0.00 | 96 | 1015.1 |
| 20260507044059 | 7 | 0 | 0.0 | 0.0 | 0.00 | 0.05 | 0.00 | 96 | 1014.9 |
| 20260507043058 | 7 | 0 | 0.0 | 0.0 | 0.00 | 0.05 | 0.00 | 95 | 1014.8 |
| 20260507042059 | 7 | 0 | 0.0 | 0.0 | 0.00 | 0.05 | 0.00 | 96 | 1014.7 |
| 20260507041054 | 6 | 0 | 0.0 | 0.0 | 0.00 | 0.05 | 0.00 | 96 | 1014.7 |
| 20260507040059 | 6 | 0 | 0.0 | 0.0 | 0.00 | 0.05 | 0.00 | 96 | 1014.6 |
| 20260507035057 | 6 | 0 | 0.0 | 0.0 | 0.00 | 0.05 | 0.00 | 96 | 1014.6 |
| 20260507034056 | 6 | 0 | 0.0 | 0.0 | 0.00 | 0.05 | 0.00 | 96 | 1014.6 |
| 20260507033055 | 6 | 0 | 0.0 | 0.0 | 0.00 | 0.05 | 0.00 | 96 | 1014.6 |
| 20260507032056 | 6 | 0 | 0.0 | 0.0 | 0.00 | 0.05 | 0.00 | 96 | 1014.5 |
| 20260507031056 | 6 | 0 | 0.0 | 0.0 | 0.00 | 0.05 | 0.00 | 96 | 1014.4 |
| 20260507030055 | 6 | 0 | 0.0 | 0.0 | 0.00 | 0.05 | 0.00 | 97 | 1014.2 |
| 20260507025054 | 6 | 0 | 0.0 | 0.0 | 0.00 | 0.05 | 0.00 | 96 | 1014.3 |
| 20260507024052 | 6 | 0 | 0.0 | 0.0 | 0.00 | 0.05 | 0.00 | 96 | 1014.3 |
| 20260507022057 | 6 | 0 | 0.0 | 0.0 | 0.00 | 0.05 | 0.00 | 95 | 1014.2 |
| 20260507021056 | 6 | 0 | 0.0 | 0.0 | 0.00 | 0.05 | 0.00 | 96 | 1014.2 |
| 20260507020055 | 6 | 0 | 0.0 | 0.0 | 0.00 | 0.05 | 0.00 | 96 | 1014.1 |
| 20260507015053 | 6 | 0 | 0.0 | 0.0 | 0.00 | 0.05 | 0.00 | 95 | 1014.1 |
| 20260507014055 | 6 | 0 | 0.0 | 0.0 | 0.00 | 0.05 | 0.00 | 96 | 1014.1 |
| 20260507013054 | 6 | 0 | 0.0 | 0.0 | 0.00 | 0.05 | 0.00 | 97 | 1014.1 |
| 20260507012052 | 5 | 0 | 0.0 | 0.0 | 0.00 | 0.05 | 0.00 | 98 | 1014.2 |
| 20260507011058 | 5 | 0 | 0.0 | 0.0 | 0.00 | 0.05 | 0.00 | 97 | 1014.1 |
| 20260507005055 | 5 | 0 | 0.0 | 0.0 | 0.00 | 0.05 | 0.00 | 96 | 1014.1 |
| 20260507004057 | 5 | 0 | 0.0 | 0.0 | 0.00 | 0.05 | 0.00 | 95 | 1014.0 |
| 20260507003055 | 6 | 0 | 0.0 | 0.0 | 0.00 | 0.05 | 0.00 | 94 | 1013.9 |
| 20260507002056 | 6 | 0 | 0.0 | 0.0 | 0.00 | 0.05 | 0.00 | 93 | 1013.9 |
| 20260506235107 | 6 | 0 | 0.0 | 0.0 | 0.00 | 0.05 | 0.00 | 92 | 1013.6 |
| 20260506234106 | 6 | 0 | 0.0 | 0.0 | 0.00 | 0.05 | 0.00 | 92 | 1013.6 |
| 20260506233105 | 6 | 0 | 0.0 | 0.0 | 0.00 | 0.05 | 0.00 | 92 | 1013.7 |
| 20260506232104 | 6 | 0 | 0.0 | 0.0 | 0.00 | 0.05 | 0.00 | 93 | 1013.5 |
| 20260506231104 | 7 | 0 | 0.0 | 0.0 | 0.00 | 0.05 | 0.00 | 93 | 1013.5 |
| 20260506230106 | 7 | 0 | 0.0 | 0.0 | 0.00 | 0.05 | 0.00 | 92 | 1013.5 |
| 20260506225104 | 7 | 0 | 0.0 | 0.0 | 0.00 | 0.05 | 0.00 | 92 | 1013.3 |
| 20260506224104 | 7 | 0 | 0.0 | 0.0 | 0.00 | 0.05 | 0.00 | 92 | 1013.3 |
| 20260506223103 | 7 | 0 | 0.0 | 0.0 | 0.00 | 0.05 | 0.00 | 92 | 1013.2 |
| 20260506222107 | 7 | 0 | 0.0 | 0.0 | 0.00 | 0.05 | 0.00 | 92 | 1012.9 |
| 20260506221103 | 7 | 0 | 0.0 | 0.0 | 0.00 | 0.05 | 0.00 | 91 | 1012.9 |
| 20260506220113 | 7 | 0 | 0.0 | 0.0 | 0.00 | 0.05 | 0.00 | 91 | 1012.8 |
| 20260506215112 | 7 | 0 | 0.0 | 0.0 | 0.00 | 0.05 | 0.05 | 91 | 1012.7 |
| 20260506214112 | 7 | 0 | 0.0 | 0.0 | 0.00 | 0.05 | 0.05 | 91 | 1012.7 |
| 20260506213110 | 7 | 0 | 0.0 | 0.0 | 0.00 | 0.05 | 0.05 | 91 | 1012.6 |
| 20260506212110 | 8 | 0 | 0.0 | 0.0 | 0.00 | 0.05 | 0.05 | 91 | 1012.6 |
| 20260506211110 | 8 | 0 | 0.0 | 0.0 | 0.00 | 0.05 | 0.05 | 90 | 1012.5 |
| 20260506210108 | 8 | 0 | 0.0 | 0.0 | 0.00 | 0.05 | 0.05 | 90 | 1012.4 |
| 20260506205108 | 8 | 0 | 0.0 | 0.0 | 0.00 | 0.08 | 0.05 | 89 | 1012.4 |
| 20260506203109 | 8 | 0 | 0.0 | 0.0 | 0.00 | 0.13 | 0.05 | 89 | 1012.2 |
| 20260506202111 | 8 | 0 | 0.0 | 0.0 | 0.00 | 0.15 | 0.05 | 89 | 1012.2 |
| 20260506201111 | 8 | 0 | 0.0 | 0.0 | 0.00 | 0.20 | 0.05 | 89 | 1012.1 |
| 20260506200111 | 8 | 0 | 0.0 | 0.0 | 0.00 | 0.23 | 0.05 | 89 | 1011.9 |
| 20260506195108 | 8 | 0 | 0.0 | 0.0 | 0.00 | 0.33 | 0.05 | 88 | 1011.8 |
| 20260506194110 | 8 | 0 | 0.0 | 0.0 | 0.00 | 0.41 | 0.05 | 88 | 1011.7 |
| 20260506193111 | 8 | 0 | 0.0 | 0.0 | 0.00 | 0.48 | 0.05 | 87 | 1011.5 |
| 20260506192110 | 8 | 0 | 0.0 | 0.0 | 0.00 | 0.53 | 0.05 | 86 | 1011.4 |
| 20260506191106 | 8 | 0 | 0.0 | 0.0 | 0.00 | 0.61 | 0.05 | 86 | 1011.2 |
| 20260506190110 | 8 | 0 | 0.0 | 0.0 | 0.00 | 0.61 | 0.05 | 86 | 1011.1 |
| 20260506185109 | 8 | 0 | 0.0 | 0.0 | 0.00 | 0.64 | 0.05 | 85 | 1011.0 |
| 20260506184101 | 9 | 0 | 0.0 | 0.0 | 0.00 | 0.64 | 0.05 | 85 | 1010.9 |
| 20260506183108 | 9 | 0 | 0.0 | 0.0 | 0.00 | 0.69 | 0.05 | 84 | 1010.8 |
| 20260506182110 | 9 | 0 | 0.0 | 0.0 | 0.00 | 0.71 | 0.05 | 85 | 1010.6 |
| 20260506181101 | 9 | 0 | 0.0 | 0.0 | 0.00 | 0.74 | 0.05 | 85 | 1010.4 |
| 20260506180107 | 9 | 0 | 0.0 | 0.0 | 0.00 | 0.76 | 0.05 | 85 | 1010.2 |
| 20260506175106 | 9 | 0 | 0.0 | 0.0 | 0.00 | 0.79 | 0.05 | 84 | 1010.2 |
| 20260506173102 | 9 | 0 | 0.0 | 0.0 | 0.00 | 0.79 | 0.05 | 85 | 1010.2 |
| 20260506171104 | 10 | 0 | 0.0 | 0.0 | 0.00 | 0.79 | 0.05 | 84 | 1010.0 |
| 20260506170059 | 10 | 0 | 0.0 | 0.0 | 0.00 | 0.79 | 0.05 | 83 | 1009.9 |
| 20260506164103 | 10 | 0 | 0.0 | 0.0 | 0.00 | 0.79 | 0.05 | 84 | 1009.8 |
| 20260506163100 | 10 | 0 | 0.0 | 0.0 | 0.00 | 0.79 | 0.05 | 83 | 1009.8 |
| 20260506162106 | 10 | 0 | 0.0 | 0.0 | 0.00 | 0.79 | 0.05 | 83 | 1009.8 |
| 20260506161101 | 10 | 0 | 0.0 | 0.0 | 0.00 | 0.81 | 0.05 | 83 | 1009.7 |
| 20260506160100 | 10 | 0 | 0.0 | 0.0 | 0.00 | 0.84 | 0.05 | 83 | 1009.7 |
| 20260506155102 | 10 | 0 | 0.0 | 0.0 | 0.00 | 0.84 | 0.05 | 83 | 1009.6 |
| 20260506154107 | 10 | 0 | 0.0 | 0.0 | 0.00 | 0.86 | 0.05 | 85 | 1009.6 |
| 20260506153101 | 10 | 0 | 0.0 | 0.0 | 0.00 | 0.86 | 0.05 | 86 | 1009.5 |
| 20260506151104 | 10 | 0 | 0.0 | 0.0 | 0.00 | 0.89 | 0.05 | 86 | 1009.4 |
| 20260506150100 | 11 | 0 | 0.0 | 0.0 | 0.00 | 0.89 | 0.05 | 83 | 1009.2 |
| 20260506145103 | 11 | 0 | 0.0 | 0.0 | 0.00 | 0.89 | 0.05 | 85 | 1009.2 |
| 20260506144059 | 10 | 0 | 0.0 | 0.0 | 0.00 | 0.91 | 0.05 | 87 | 1009.2 |
| 20260506143058 | 10 | 0 | 0.0 | 0.0 | 0.00 | 0.91 | 0.05 | 87 | 1009.3 |
| 20260506142058 | 10 | 0 | 0.0 | 0.0 | 0.00 | 0.91 | 0.05 | 89 | 1009.4 |
| 20260506140106 | 11 | 0 | 0.0 | 0.0 | 0.00 | 0.94 | 0.05 | 87 | 1009.3 |
| 20260506135100 | 10 | 0 | 0.0 | 0.0 | 0.00 | 0.97 | 0.05 | 88 | 1009.3 |
| 20260506134059 | 10 | 0 | 0.0 | 0.0 | 0.00 | 0.97 | 0.05 | 89 | 1009.4 |
| 20260506132059 | 10 | 0 | 0.0 | 0.0 | 0.00 | 0.99 | 0.05 | 91 | 1009.4 |
| 20260506131059 | 10 | 0 | 0.0 | 0.0 | 0.00 | 0.99 | 0.05 | 90 | 1009.3 |
| 20260506130059 | 10 | 0 | 0.0 | 0.0 | 0.00 | 1.02 | 0.05 | 91 | 1009.2 |
| 20260506124058 | 10 | 0 | 0.0 | 0.0 | 0.00 | 1.09 | 0.05 | 90 | 1009.0 |
| 20260506123102 | 10 | 0 | 0.0 | 0.0 | 0.00 | 1.14 | 0.05 | 89 | 1008.9 |
| 20260506122058 | 10 | 0 | 0.0 | 0.0 | 0.00 | 1.17 | 0.05 | 89 | 1008.8 |
| 20260506121055 | 10 | 0 | 0.0 | 0.0 | 0.00 | 1.19 | 0.05 | 90 | 1008.8 |
| 20260506120056 | 10 | 0 | 0.0 | 0.0 | 0.00 | 1.32 | 0.05 | 90 | 1008.7 |
| 20260506115057 | 10 | 0 | 0.0 | 0.0 | 0.00 | 1.45 | 0.05 | 90 | 1008.6 |
| 20260506114059 | 10 | 0 | 0.0 | 0.0 | 0.00 | 1.57 | 0.05 | 91 | 1008.6 |
| 20260506113100 | 10 | 0 | 0.0 | 0.0 | 0.00 | 1.57 | 0.05 | 91 | 1008.4 |
| 20260506111059 | 10 | 0 | 0.0 | 0.0 | 0.00 | 1.57 | 0.05 | 89 | 1008.3 |
| 20260506105056 | 10 | 0 | 0.0 | 0.0 | 0.00 | 1.57 | 0.05 | 91 | 1008.3 |